[[{"header":{"parameterUnit":"m.s-1","parameterCategory":1,"la1":30.2991,"la2":30.254,"lo1":-89.0895,"lo2":-89.0444,"dy":0.0017,"dx":0.0017,"nx":28,"ny":28,"refTime":"2023-09-07T21:00:00:Z","depth":0,"parameterNumber":2,"parameterNumberName":"U-component_of_WINDS"},"data":[0,0,0,0,0,0,0,0,0,0,0,0,0,0,0,0,0,0,0,0,0,0,0,0,0,0,0,0,0,0,0,0,0,0,0,0,0,0,0,0,0,0,0,0,0,0,0,0,0,0,0,0,0,0,0,0,0,0,1.2554,1.2555,0,1.2681,1.2683,1.2684,1.2647,1.2644,1.2642,1.2639,1.2782,1.2788,1.2794,0,0,0,0,0,0,0,0,0,0,0,0,0,1.2292,1.2297,1.2554,1.2556,1.2557,1.2681,1.2683,1.2684,1.2648,1.2644,1.2641,1.2638,1.2779,1.2787,1.2794,0,0,0,0,0,0,0,0,0,0,0,0,0,1.2411,1.2298,1.2554,1.2553,1.2555,1.2681,1.2683,1.2685,1.2648,1.2644,1.264,1.2637,1.2777,1.2786,1.2795,1.2933,0,0,1.2824,1.2828,0,0,0,0,0,0,0,0,1.2404,1.2421,1.2552,1.2554,1.2555,1.2644,1.2642,1.2769,1.2649,1.2613,1.2639,1.2635,1.274,1.2752,1.2785,1.294,1.2946,1.2825,1.2831,1.2835,1.2837,0,0,0,0,0,0,0,1.2396,1.2415,1.2605,1.2554,1.2556,1.2551,1.2563,1.2666,1.2698,1.2616,1.2613,1.2628,1.274,1.2776,1.2788,1.2948,1.2825,1.2833,1.2839,1.2843,1.3226,1.323,0,0,0,0,0,0,1.2385,1.2409,1.2601,1.2608,1.2468,1.2559,1.2573,1.262,1.2696,1.2704,1.2632,1.2626,1.2762,1.2777,1.2793,1.2961,1.2835,1.2843,1.2849,1.3221,1.3227,1.3232,0,0,0,0,0,0,1.238,1.2402,1.2595,1.2508,1.2532,1.2567,1.262,1.2624,1.266,1.2708,1.2715,1.2662,1.2759,1.278,1.2898,1.2966,1.2848,1.2856,1.3216,1.3223,1.3229,1.3298,0,0,0,0,0,0,1.2372,1.2401,1.245,1.2509,1.2537,1.2695,1.2624,1.263,1.2675,1.2669,1.2738,1.2746,1.2758,1.2885,1.2908,1.2977,1.2864,1.321,1.3219,1.3227,1.329,1.3306,1.332,0,0,0,0,0,1.2363,1.2467,1.2453,1.2477,1.2599,1.2699,1.2715,1.2723,1.268,1.2733,1.2764,1.2744,1.2954,1.2897,1.2923,1.2995,1.3206,1.3216,1.3226,1.3283,1.3303,1.332,0,0,0,0,0,0,1.2419,1.2474,1.246,1.2585,1.2637,1.2692,1.2759,1.2744,1.2813,1.2805,1.2816,1.2832,1.2954,1.2986,1.2922,1.3134,1.3074,1.309,1.3109,1.3128,1.3143,1.3134,1.2871,0,0,0,0,0,1.2445,1.2518,1.2564,1.267,1.2697,1.2723,1.2767,1.2769,1.2825,1.2848,1.2888,1.2947,1.3026,1.3079,1.3154,1.3294,1.3311,1.3357,1.3372,1.3384,1.3399,1.3478,1.35,1.3265,1.3265,1.3265,0,0,1.2502,1.2541,1.2587,1.2683,1.2723,1.2802,1.2742,1.2828,1.2889,1.2863,1.2976,1.3008,1.3075,1.3205,1.3264,1.3236,1.3467,1.3397,1.3407,1.3415,1.3491,1.3513,1.3533,1.3272,1.3271,1.327,0,0,1.2646,1.2681,1.2774,1.2815,1.2876,1.2893,1.2916,1.2973,1.2992,1.3106,1.3088,1.3162,1.3298,1.3347,1.339,1.3552,1.3538,1.3577,1.3658,1.3735,1.3753,1.377,1.3831,1.3853,1.3591,1.3591,1.3591,0,1.2709,1.2824,1.2825,1.2912,1.2957,1.2932,1.303,1.3071,1.3156,1.3189,1.3154,1.3325,1.3368,1.3511,1.355,1.3585,1.3614,1.357,1.375,1.3766,1.3782,1.3841,1.3863,1.3595,1.3595,1.3595,1.3594,0,1.2901,1.2981,1.305,1.3127,1.3179,1.3272,1.3291,1.3344,1.3341,1.3363,1.3482,1.3532,1.3618,1.3652,1.3651,1.3796,1.3776,1.3746,1.3686,1.3809,1.3864,1.3887,1.3602,1.36,1.3599,1.3598,0,0,1.3085,1.3161,1.3187,1.3223,1.3289,1.3353,1.3445,1.3526,1.3573,1.3632,1.3713,1.3829,1.3801,1.3849,1.3854,1.3922,1.4051,1.3883,1.3885,1.3915,1.4218,1.4242,1.4268,1.4041,1.4045,1.4048,1.4213,0,1.3236,1.3394,1.3399,1.3546,1.3622,1.36,1.3682,1.3733,1.3756,1.3828,1.3855,1.3938,1.3893,1.3923,1.3988,1.4021,1.4113,1.4009,1.4121,1.4125,1.4107,1.4296,1.4322,1.4475,1.4234,1.4238,1.4241,0,1.3434,1.3496,1.3649,1.3705,1.3737,1.381,1.3885,1.3952,1.4012,1.4024,1.4078,1.4073,1.4172,1.4107,1.4247,1.4176,1.4222,1.4246,1.4252,1.4265,1.4192,1.4317,1.4524,1.4548,1.4274,1.4272,1.4269,0,1.3557,1.3679,1.3786,1.3818,1.3885,1.3937,1.3968,1.4023,1.4072,1.4139,1.4172,1.4251,1.4295,1.4359,1.4377,1.4327,1.4518,1.4453,1.4535,1.4535,1.4578,1.4576,1.4798,1.4603,1.4603,1.4602,1.4602,0,1.3727,1.3823,1.3842,1.3909,1.4017,1.4023,1.4131,1.4159,1.4208,1.4283,1.427,1.4342,1.436,1.4437,1.4452,1.4568,1.4587,1.4604,1.4607,1.4606,1.4605,1.4639,1.463,1.4608,1.4607,1.4606,1.4605,0,1.3883,1.3899,1.4016,1.4069,1.4085,1.4163,1.421,1.4277,1.4297,1.4393,1.4416,1.4451,1.4541,1.4564,1.4672,1.4683,1.4819,1.4812,1.4798,1.4799,1.488,1.4874,1.5134,1.5171,1.4949,1.4951,1.4953,0,1.3992,1.4064,1.4124,1.4172,1.4204,1.4281,1.433,1.4339,1.4392,1.4465,1.4524,1.4611,1.4681,1.4826,1.4864,1.4947,1.4944,1.5029,1.4957,1.4954,1.4949,1.4945,1.4954,1.5044,1.5047,1.5048,1.505,0,1.4184,1.4189,1.4257,1.433,1.4388,1.4447,1.4503,1.4544,1.4561,1.4622,1.4711,1.4765,1.4874,1.4962,1.5046,1.5083,1.5072,1.5072,1.5096,1.5097,1.5088,1.5097,1.4839,1.5067,1.5065,1.5064,1.5063,1.5062,1.4323,1.4387,1.4439,1.4517,1.4559,1.4612,1.4677,1.4705,1.4778,1.4865,1.4867,1.4965,1.5026,1.5137,1.5178,1.5258,1.5233,1.5267,1.5276,1.5285,1.5294,1.5072,1.5274,1.5273,1.5273,1.5272,1.5272,0,1.4517,1.4549,1.462,1.4698,1.476,1.4738,1.4799,1.4855,1.494,1.4995,1.5063,1.5168,1.5253,1.5297,1.5383,1.5439,1.5436,1.5462,1.546,1.5469,1.531,1.5282,1.5463,1.5463,1.5463,1.5463,1.5463,1.5463,1.4626,1.4734,1.4745,1.4876,1.4908,1.5001,1.5038,1.5089,1.5132,1.5248,1.5318,1.5344,1.5396,1.5486,1.5565,1.5576,1.561,1.5639,1.5648,1.5499,1.548,1.5461,1.5435,1.5646,1.5646,1.5801,1.5803,1.5804]},{"header":{"parameterUnit":"m.s-1","parameterCategory":1,"la1":30.2991,"la2":30.254,"lo1":-89.0895,"lo2":-89.0444,"dy":0.0017,"dx":0.0017,"nx":28,"ny":28,"refTime":"2023-09-07T21:00:00:Z","depth":0,"parameterNumber":3,"parameterNumberName":"V-component_of_WINDS"},"data":[0,0,0,0,0,0,0,0,0,0,0,0,0,0,0,0,0,0,0,0,0,0,0,0,0,0,0,0,0,0,0,0,0,0,0,0,0,0,0,0,0,0,0,0,0,0,0,0,0,0,0,0,0,0,0,0,0,0,0.6268,0.6271,0,0.6508,0.651,0.6513,0.6517,0.6514,0.6511,0.6508,0.676,0.6769,0.6779,0,0,0,0,0,0,0,0,0,0,0,0,0,0.5819,0.5828,0.6268,0.6271,0.6274,0.6507,0.651,0.6514,0.6518,0.6514,0.651,0.6507,0.6757,0.6768,0.678,0,0,0,0,0,0,0,0,0,0,0,0,0,0.6032,0.583,0.6267,0.6304,0.6309,0.6506,0.6511,0.6515,0.6518,0.6514,0.6509,0.6505,0.6753,0.6767,0.6781,0.696,0,0,0.6825,0.6831,0,0,0,0,0,0,0,0,0.602,0.6049,0.6295,0.6302,0.6308,0.6478,0.6445,0.6664,0.6519,0.6439,0.6508,0.6503,0.667,0.6691,0.6746,0.6972,0.6983,0.6826,0.6835,0.6841,0.6845,0,0,0,0,0,0,0,0.6005,0.6039,0.6363,0.6299,0.6307,0.631,0.6335,0.6486,0.6578,0.6446,0.6447,0.6475,0.6673,0.6732,0.6752,0.6987,0.6826,0.6839,0.6847,0.6853,0.7371,0.7376,0,0,0,0,0,0,0.5982,0.6026,0.6355,0.637,0.615,0.6322,0.635,0.6428,0.6576,0.6594,0.6478,0.6474,0.671,0.6735,0.6761,0.6981,0.6841,0.6854,0.6863,0.7366,0.7372,0.7378,0,0,0,0,0,0,0.5973,0.6012,0.6346,0.6198,0.6241,0.6334,0.6422,0.6435,0.6494,0.66,0.6617,0.6522,0.6708,0.6741,0.691,0.6989,0.6861,0.6874,0.736,0.7368,0.7375,0.7421,0,0,0,0,0,0,0.596,0.6008,0.6076,0.62,0.6249,0.649,0.6427,0.6443,0.6518,0.6515,0.6646,0.6663,0.6707,0.6889,0.6924,0.7007,0.6885,0.7353,0.7363,0.7372,0.7412,0.7429,0.7443,0,0,0,0,0,0.5944,0.6081,0.608,0.6119,0.6335,0.6494,0.6522,0.6568,0.6525,0.6595,0.6662,0.6659,0.6974,0.6906,0.6946,0.7034,0.7348,0.736,0.7372,0.7406,0.7426,0.7443,0,0,0,0,0,0,0.5968,0.6098,0.6098,0.6279,0.6375,0.6494,0.6584,0.6588,0.67,0.6693,0.6746,0.6776,0.6944,0.7006,0.6927,0.7215,0.7156,0.7177,0.7168,0.7188,0.7203,0.7186,0.6897,0,0,0,0,0,0.5993,0.6109,0.6217,0.6367,0.6415,0.6491,0.6562,0.6588,0.6691,0.6732,0.6812,0.6914,0.7036,0.7115,0.7233,0.742,0.7449,0.7501,0.7516,0.7528,0.7545,0.7649,0.7673,0.7416,0.7416,0.7416,0,0,0.6049,0.6134,0.6205,0.6374,0.6451,0.6572,0.6525,0.6655,0.6746,0.6753,0.6917,0.6979,0.7096,0.7274,0.7357,0.7331,0.7622,0.7543,0.7551,0.7563,0.7663,0.7688,0.7709,0.7424,0.7422,0.7421,0,0,0.6211,0.6287,0.6419,0.6497,0.6614,0.6663,0.6695,0.6814,0.6855,0.7019,0.7027,0.7136,0.7345,0.7427,0.7497,0.7688,0.769,0.7725,0.7806,0.7906,0.7926,0.7945,0.8014,0.8038,0.7742,0.7742,0.7742,0,0.6266,0.6446,0.6488,0.6617,0.6692,0.67,0.6836,0.691,0.7061,0.7113,0.708,0.7341,0.7421,0.7619,0.7665,0.7721,0.776,0.7712,0.792,0.7938,0.7956,0.8023,0.8048,0.7746,0.7745,0.7745,0.7744,0,0.6508,0.6633,0.6726,0.6868,0.6953,0.7085,0.7148,0.7229,0.7247,0.73,0.7468,0.7563,0.77,0.7748,0.7769,0.795,0.793,0.7908,0.7851,0.7983,0.8047,0.8073,0.7751,0.7749,0.7748,0.7747,0,0,0.6695,0.6856,0.689,0.6954,0.7083,0.7181,0.7313,0.7444,0.7513,0.7616,0.7729,0.7904,0.7884,0.7963,0.7993,0.808,0.8226,0.8048,0.8051,0.8079,0.8432,0.8448,0.8477,0.8226,0.8231,0.8235,0.8422,0,0.6872,0.7105,0.7146,0.7351,0.7467,0.7475,0.7591,0.7683,0.7735,0.7843,0.7901,0.8025,0.7989,0.8036,0.8123,0.819,0.8298,0.8177,0.8334,0.8339,0.8306,0.851,0.8529,0.87,0.8447,0.8451,0.8454,0,0.7111,0.7217,0.7433,0.7544,0.7594,0.7697,0.782,0.7922,0.8027,0.8059,0.8145,0.8164,0.8303,0.8237,0.8429,0.8346,0.8412,0.8455,0.8462,0.8481,0.8406,0.8535,0.8756,0.8782,0.8494,0.8491,0.8488,0,0.7227,0.7424,0.7578,0.7633,0.7767,0.7838,0.7898,0.7998,0.8074,0.8182,0.8232,0.8355,0.8424,0.8519,0.8571,0.8518,0.876,0.8699,0.8792,0.8791,0.8845,0.8841,0.9081,0.8884,0.8884,0.8883,0.8883,0,0.7422,0.7554,0.7632,0.7727,0.7875,0.792,0.8066,0.8124,0.8212,0.832,0.8335,0.8436,0.8497,0.8608,0.8649,0.8802,0.8833,0.8863,0.8873,0.8863,0.886,0.8909,0.8899,0.889,0.8889,0.8887,0.8886,0,0.7578,0.7635,0.7804,0.7915,0.7946,0.805,0.8147,0.824,0.8291,0.8427,0.8462,0.8543,0.8673,0.8733,0.8895,0.8922,0.9097,0.9098,0.9061,0.9065,0.9155,0.9146,0.9437,0.9478,0.9253,0.9255,0.9257,0,0.7699,0.78,0.7922,0.7994,0.8054,0.817,0.8247,0.8295,0.8375,0.85,0.8579,0.8708,0.8815,0.9023,0.9097,0.9221,0.9226,0.9319,0.9245,0.9231,0.9229,0.9223,0.9233,0.9333,0.9336,0.9337,0.9339,0,0.7909,0.7932,0.8041,0.816,0.825,0.8347,0.8442,0.85,0.8563,0.8652,0.8784,0.8866,0.903,0.9159,0.9287,0.935,0.9356,0.9361,0.9389,0.9381,0.9356,0.9372,0.9099,0.9355,0.9353,0.9352,0.9351,0.9351,0.8053,0.8143,0.8242,0.8363,0.8438,0.8526,0.8618,0.8679,0.879,0.8925,0.8947,0.9088,0.9189,0.9361,0.9428,0.9539,0.9517,0.9558,0.9569,0.9579,0.9584,0.9336,0.9562,0.9562,0.9562,0.9561,0.9561,0,0.8265,0.8328,0.8438,0.8569,0.8664,0.8657,0.8761,0.8842,0.8965,0.9058,0.9161,0.9313,0.9437,0.952,0.9647,0.972,0.9726,0.9752,0.9748,0.9763,0.9596,0.9559,0.9745,0.9745,0.9745,0.9745,0.9745,0.9745,0.8386,0.8538,0.8572,0.8762,0.8825,0.8961,0.9021,0.9102,0.9176,0.9343,0.9446,0.9498,0.9587,0.972,0.9834,0.9855,0.9902,0.9929,0.995,0.9793,0.9774,0.9756,0.9722,0.9938,0.9939,1.0107,1.0109,1.011]}]]